Time,TemperatureF,DewpointF,PressureIn,WindDirection,WindDirectionDegrees,WindSpeedMPH,WindSpeedGustMPH,Humidity,HourlyPrecipIn,Conditions,Clouds,dailyrainin,SolarRadiationWatts/m^2,SoftwareType,DateUTC
2013-01-02 00:02:00,49.0,49.0,-100.00,West,263,1.0,4.0,100,0.03,,,1.19,0.000000,,2013-01-02 05:02:00,
2013-01-02 00:33:00,49.0,49.0,-100.00,West,263,1.0,4.0,100,0.03,,,1.19,0.000000,,2013-01-02 05:33:00,
2013-01-02 00:43:00,49.0,49.0,-100.00,West,263,1.0,4.0,100,0.03,,,1.19,0.000000,,2013-01-02 05:43:00,
2013-01-02 00:53:00,49.0,49.0,-100.00,West,263,1.0,4.0,100,0.03,,,1.19,0.000000,,2013-01-02 05:53:00,
2013-01-02 01:02:00,49.0,49.0,-100.00,WNW,291,2.0,4.0,100,0.05,,,1.24,0.000000,,2013-01-02 06:02:00,
2013-01-02 01:33:00,49.0,49.0,-100.00,WNW,291,2.0,4.0,100,0.05,,,1.24,0.000000,,2013-01-02 06:33:00,
2013-01-02 01:42:00,49.0,49.0,-100.00,WNW,291,2.0,4.0,100,0.05,,,1.24,0.000000,,2013-01-02 06:42:00,
2013-01-02 01:53:00,49.0,49.0,-100.00,WNW,291,2.0,4.0,100,0.05,,,1.24,0.000000,,2013-01-02 06:53:00,
2013-01-02 02:02:00,49.0,49.0,-100.00,WNW,297,2.0,4.0,100,0.00,,,1.24,0.000000,,2013-01-02 07:02:00,
2013-01-02 02:22:00,49.0,49.0,-100.00,WNW,297,2.0,4.0,100,0.00,,,1.24,0.000000,,2013-01-02 07:22:00,
2013-01-02 02:32:00,49.0,49.0,-100.00,WNW,297,2.0,4.0,100,0.00,,,1.24,0.000000,,2013-01-02 07:32:00,
2013-01-02 02:42:00,49.0,49.0,-100.00,WNW,297,2.0,4.0,100,0.00,,,1.24,0.000000,,2013-01-02 07:42:00,
2013-01-02 02:52:00,49.0,49.0,-100.00,WNW,297,2.0,4.0,100,0.00,,,1.24,0.000000,,2013-01-02 07:52:00,
2013-01-02 03:02:00,49.0,49.0,-100.00,NW,318,3.0,6.0,100,0.00,,,1.24,0.000000,,2013-01-02 08:02:00,
2013-01-02 03:32:00,49.0,49.0,-100.00,NW,318,3.0,6.0,100,0.00,,,1.24,0.000000,,2013-01-02 08:32:00,
2013-01-02 03:42:00,49.0,49.0,-100.00,NW,318,3.0,6.0,100,0.00,,,1.24,0.000000,,2013-01-02 08:42:00,
2013-01-02 03:53:00,49.0,49.0,-100.00,NW,318,3.0,6.0,100,0.00,,,1.24,0.000000,,2013-01-02 08:53:00,
2013-01-02 04:02:00,48.0,47.0,-100.00,NNW,348,4.0,7.0,95,0.00,,,1.24,0.000000,,2013-01-02 09:02:00,
2013-01-02 04:32:00,48.0,47.0,-100.00,NNW,348,4.0,7.0,95,0.00,,,1.24,0.000000,,2013-01-02 09:32:00,
2013-01-02 04:43:00,48.0,47.0,-100.00,NNW,348,4.0,7.0,95,0.00,,,1.24,0.000000,,2013-01-02 09:43:00,
2013-01-02 04:53:00,48.0,47.0,-100.00,NNW,348,4.0,7.0,95,0.00,,,1.24,0.000000,,2013-01-02 09:53:00,
2013-01-02 05:02:00,46.0,42.0,-100.00,NW,326,5.0,11.0,87,0.00,,,1.24,0.000000,,2013-01-02 10:02:00,
2013-01-02 05:22:00,46.0,42.0,-100.00,NW,326,5.0,11.0,87,0.00,,,1.24,0.000000,,2013-01-02 10:22:00,
2013-01-02 05:32:00,46.0,42.0,-100.00,NW,326,5.0,11.0,87,0.00,,,1.24,0.000000,,2013-01-02 10:32:00,
2013-01-02 05:42:00,46.0,42.0,-100.00,NW,326,5.0,11.0,87,0.00,,,1.24,0.000000,,2013-01-02 10:42:00,
2013-01-02 05:53:00,46.0,42.0,-100.00,NW,326,5.0,11.0,87,0.00,,,1.24,0.000000,,2013-01-02 10:53:00,
2013-01-02 06:02:00,44.0,41.0,-100.00,WSW,245,1.0,6.0,90,0.00,,,1.24,0.000000,,2013-01-02 11:02:00,
2013-01-02 06:33:00,44.0,41.0,-100.00,WSW,245,1.0,6.0,90,0.00,,,1.24,0.000000,,2013-01-02 11:33:00,
2013-01-02 06:43:00,44.0,41.0,-100.00,WSW,245,1.0,6.0,90,0.00,,,1.24,0.000000,,2013-01-02 11:43:00,
2013-01-02 06:53:00,44.0,41.0,-100.00,WSW,245,1.0,6.0,90,0.00,,,1.24,0.000000,,2013-01-02 11:53:00,
2013-01-02 07:02:00,44.0,43.0,-100.00,NW,304,2.0,5.0,96,0.00,,,1.24,0.000000,,2013-01-02 12:02:00,
2013-01-02 07:33:00,44.0,43.0,-100.00,NW,304,2.0,5.0,96,0.00,,,1.24,0.000000,,2013-01-02 12:33:00,
2013-01-02 07:43:00,44.0,43.0,-100.00,NW,304,2.0,5.0,96,0.00,,,1.24,0.000000,,2013-01-02 12:43:00,
2013-01-02 07:53:00,44.0,43.0,-100.00,NW,304,2.0,5.0,96,0.00,,,1.24,0.000000,,2013-01-02 12:53:00,
2013-01-02 08:02:00,42.0,41.0,-100.00,WNW,286,2.0,7.0,98,0.00,,,1.22,2.000000,,2013-01-02 13:02:00,
2013-01-02 08:33:00,42.0,41.0,-100.00,WNW,286,2.0,7.0,98,0.00,,,1.22,2.000000,,2013-01-02 13:33:00,
2013-01-02 08:43:00,42.0,41.0,-100.00,WNW,286,2.0,7.0,98,0.00,,,1.22,2.000000,,2013-01-02 13:43:00,
2013-01-02 08:53:00,42.0,41.0,-100.00,WNW,286,2.0,7.0,98,0.00,,,1.22,2.000000,,2013-01-02 13:53:00,
2013-01-02 09:02:00,42.0,41.0,-100.00,WNW,285,2.0,7.0,98,0.00,,,1.07,35.000000,,2013-01-02 14:02:00,
2013-01-02 09:33:00,42.0,41.0,-100.00,WNW,285,2.0,7.0,98,0.00,,,1.07,35.000000,,2013-01-02 14:33:00,
2013-01-02 09:43:00,42.0,41.0,-100.00,WNW,285,2.0,7.0,98,0.00,,,1.07,35.000000,,2013-01-02 14:43:00,
2013-01-02 09:53:00,42.0,41.0,-100.00,WNW,285,2.0,7.0,98,0.00,,,1.07,35.000000,,2013-01-02 14:53:00,
2013-01-02 10:02:00,44.0,42.0,-100.00,NNW,330,2.0,6.0,93,0.00,,,0.94,101.000000,,2013-01-02 15:02:00,
2013-01-02 10:33:00,44.0,42.0,-100.00,NNW,330,2.0,6.0,93,0.00,,,0.94,101.000000,,2013-01-02 15:33:00,
2013-01-02 10:43:00,44.0,42.0,-100.00,NNW,330,2.0,6.0,93,0.00,,,0.94,101.000000,,2013-01-02 15:43:00,
2013-01-02 10:53:00,44.0,42.0,-100.00,NNW,330,2.0,6.0,93,0.00,,,0.94,101.000000,,2013-01-02 15:53:00,
2013-01-02 11:02:00,45.0,41.0,-100.00,NW,320,3.0,5.0,85,0.00,,,0.79,119.000000,,2013-01-02 16:02:00,
2013-01-02 11:33:00,45.0,41.0,-100.00,NW,320,3.0,5.0,85,0.00,,,0.79,119.000000,,2013-01-02 16:33:00,
2013-01-02 11:43:00,45.0,41.0,-100.00,NW,320,3.0,5.0,85,0.00,,,0.79,119.000000,,2013-01-02 16:43:00,
2013-01-02 11:53:00,45.0,41.0,-100.00,NW,320,3.0,5.0,85,0.00,,,0.79,119.000000,,2013-01-02 16:53:00,
2013-01-02 12:02:00,45.0,41.0,-100.00,NW,304,3.0,7.0,85,0.00,,,0.73,134.000000,,2013-01-02 17:02:00,
2013-01-02 12:33:00,45.0,41.0,-100.00,NW,304,3.0,7.0,85,0.00,,,0.73,134.000000,,2013-01-02 17:33:00,
2013-01-02 12:43:00,45.0,41.0,-100.00,NW,304,3.0,7.0,85,0.00,,,0.73,134.000000,,2013-01-02 17:43:00,
2013-01-02 12:54:00,45.0,41.0,-100.00,NW,304,3.0,7.0,85,0.00,,,0.73,134.000000,,2013-01-02 17:54:00,
2013-01-02 13:02:00,45.0,40.0,-100.00,NW,308,3.0,7.0,83,0.00,,,0.66,152.000000,,2013-01-02 18:02:00,
2013-01-02 13:23:00,45.0,40.0,-100.00,NW,308,3.0,7.0,83,0.00,,,0.66,152.000000,,2013-01-02 18:23:00,
2013-01-02 13:33:00,45.0,40.0,-100.00,NW,308,3.0,7.0,83,0.00,,,0.66,152.000000,,2013-01-02 18:33:00,
2013-01-02 13:43:00,45.0,40.0,-100.00,NW,308,3.0,7.0,83,0.00,,,0.66,152.000000,,2013-01-02 18:43:00,
2013-01-02 13:53:00,45.0,40.0,-100.00,NW,308,3.0,7.0,83,0.00,,,0.66,152.000000,,2013-01-02 18:53:00,
2013-01-02 14:02:00,45.0,40.0,-100.00,WNW,301,3.0,6.0,84,0.00,,,0.58,123.000000,,2013-01-02 19:02:00,
2013-01-02 14:23:00,45.0,40.0,-100.00,WNW,301,3.0,6.0,84,0.00,,,0.58,123.000000,,2013-01-02 19:23:00,
2013-01-02 14:33:00,45.0,40.0,-100.00,WNW,301,3.0,6.0,84,0.00,,,0.58,123.000000,,2013-01-02 19:33:00,
2013-01-02 14:43:00,45.0,40.0,-100.00,WNW,301,3.0,6.0,84,0.00,,,0.58,123.000000,,2013-01-02 19:43:00,
2013-01-02 14:53:00,45.0,40.0,-100.00,WNW,301,3.0,6.0,84,0.00,,,0.58,123.000000,,2013-01-02 19:53:00,
2013-01-02 15:02:00,44.0,40.0,-100.00,NW,310,3.0,7.0,85,0.00,,,0.52,125.000000,,2013-01-02 20:02:00,
2013-01-02 15:23:00,44.0,40.0,-100.00,NW,310,3.0,7.0,85,0.00,,,0.52,125.000000,,2013-01-02 20:23:00,
2013-01-02 15:33:00,44.0,40.0,-100.00,NW,310,3.0,7.0,85,0.00,,,0.52,125.000000,,2013-01-02 20:33:00,
2013-01-02 15:42:00,44.0,40.0,-100.00,NW,310,3.0,7.0,85,0.00,,,0.52,125.000000,,2013-01-02 20:42:00,
2013-01-02 15:53:00,44.0,40.0,-100.00,NW,310,3.0,7.0,85,0.00,,,0.52,125.000000,,2013-01-02 20:53:00,
2013-01-02 16:02:00,43.0,40.0,-100.00,West,273,3.0,8.0,88,0.00,,,0.48,60.000000,,2013-01-02 21:02:00,
2013-01-02 16:33:00,43.0,40.0,-100.00,West,273,3.0,8.0,88,0.00,,,0.48,60.000000,,2013-01-02 21:33:00,
2013-01-02 16:43:00,43.0,40.0,-100.00,West,273,3.0,8.0,88,0.00,,,0.48,60.000000,,2013-01-02 21:43:00,
2013-01-02 16:53:00,43.0,40.0,-100.00,West,273,3.0,8.0,88,0.00,,,0.48,60.000000,,2013-01-02 21:53:00,
2013-01-02 17:02:00,41.0,38.0,-100.00,WSW,256,3.0,9.0,90,0.00,,,0.43,29.000000,,2013-01-02 22:02:00,
2013-01-02 17:22:00,41.0,38.0,-100.00,WSW,256,3.0,9.0,90,0.00,,,0.43,29.000000,,2013-01-02 22:22:00,
2013-01-02 17:32:00,41.0,38.0,-100.00,WSW,256,3.0,9.0,90,0.00,,,0.43,29.000000,,2013-01-02 22:32:00,
2013-01-02 17:43:00,41.0,38.0,-100.00,WSW,256,3.0,9.0,90,0.00,,,0.43,29.000000,,2013-01-02 22:43:00,
2013-01-02 17:53:00,41.0,38.0,-100.00,WSW,256,3.0,9.0,90,0.00,,,0.43,29.000000,,2013-01-02 22:53:00,
2013-01-02 18:02:00,40.0,38.0,-100.00,West,262,2.0,7.0,92,0.00,,,0.40,3.000000,,2013-01-02 23:02:00,
2013-01-02 18:23:00,40.0,38.0,-100.00,West,262,2.0,7.0,92,0.00,,,0.40,3.000000,,2013-01-02 23:23:00,
2013-01-02 18:33:00,40.0,38.0,-100.00,West,262,2.0,7.0,92,0.00,,,0.40,3.000000,,2013-01-02 23:33:00,
2013-01-02 18:43:00,40.0,38.0,-100.00,West,262,2.0,7.0,92,0.00,,,0.40,3.000000,,2013-01-02 23:43:00,
2013-01-02 18:53:00,40.0,38.0,-100.00,West,262,2.0,7.0,92,0.00,,,0.40,3.000000,,2013-01-02 23:53:00,
2013-01-02 19:02:00,39.0,37.0,-100.00,West,274,2.0,7.0,94,0.00,,,0.34,0.000000,,2013-01-03 00:02:00,
2013-01-02 19:22:00,39.0,37.0,-100.00,West,274,2.0,7.0,94,0.00,,,0.34,0.000000,,2013-01-03 00:22:00,
2013-01-02 19:38:00,39.0,37.0,-100.00,West,274,2.0,7.0,94,0.00,,,0.34,0.000000,,2013-01-03 00:38:00,
2013-01-02 19:53:00,39.0,37.0,-100.00,West,274,2.0,7.0,94,0.00,,,0.34,0.000000,,2013-01-03 00:53:00,
2013-01-02 20:02:00,39.0,38.0,-100.00,WNW,285,2.0,5.0,95,0.00,,,0.27,0.000000,,2013-01-03 01:02:00,
2013-01-02 20:23:00,39.0,38.0,-100.00,WNW,285,2.0,5.0,95,0.00,,,0.27,0.000000,,2013-01-03 01:23:00,
2013-01-02 20:33:00,39.0,38.0,-100.00,WNW,285,2.0,5.0,95,0.00,,,0.27,0.000000,,2013-01-03 01:33:00,
2013-01-02 20:43:00,39.0,38.0,-100.00,WNW,285,2.0,5.0,95,0.00,,,0.27,0.000000,,2013-01-03 01:43:00,
2013-01-02 20:53:00,39.0,38.0,-100.00,WNW,285,2.0,5.0,95,0.00,,,0.27,0.000000,,2013-01-03 01:53:00,
2013-01-02 21:02:00,38.0,37.0,-100.00,West,268,2.0,6.0,95,0.00,,,0.18,0.000000,,2013-01-03 02:02:00,
2013-01-02 21:33:00,38.0,37.0,-100.00,West,268,2.0,6.0,95,0.00,,,0.18,0.000000,,2013-01-03 02:33:00,
2013-01-02 21:43:00,38.0,37.0,-100.00,West,268,2.0,6.0,95,0.00,,,0.18,0.000000,,2013-01-03 02:43:00,
2013-01-02 21:53:00,38.0,37.0,-100.00,West,268,2.0,6.0,95,0.00,,,0.18,0.000000,,2013-01-03 02:53:00,
2013-01-02 22:02:00,38.0,37.0,-100.00,West,276,2.0,7.0,95,0.00,,,0.11,0.000000,,2013-01-03 03:02:00,
2013-01-02 22:47:00,38.0,37.0,-100.00,West,276,2.0,7.0,95,0.00,,,0.11,0.000000,,2013-01-03 03:47:00,
2013-01-02 22:53:00,38.0,37.0,-100.00,West,276,2.0,7.0,95,0.00,,,0.11,0.000000,,2013-01-03 03:53:00,
2013-01-02 23:02:00,38.0,37.0,-100.00,WSW,243,2.0,4.0,96,0.00,,,0.08,0.000000,,2013-01-03 04:02:00,
2013-01-02 23:32:00,38.0,37.0,-100.00,WSW,243,2.0,4.0,96,0.00,,,0.08,0.000000,,2013-01-03 04:32:00,
2013-01-02 23:43:00,38.0,37.0,-100.00,WSW,243,2.0,4.0,96,0.00,,,0.08,0.000000,,2013-01-03 04:43:00,
2013-01-02 23:53:00,38.0,37.0,-100.00,WSW,243,2.0,4.0,96,0.00,,,0.08,0.000000,,2013-01-03 04:53:00,